Weather History for Ladysmith, WI

Change the Weather History Date:

Monday, March 10, 2014

  Actual Average (KRPD) Record (KRPD)
Temperature  
Mean Temperature 40 °F -  
Max Temperature 51 °F 31 °F 55 °F (2012)
Min Temperature 28 °F 13 °F -9 °F (2003)
Degree Days  
Heating Degree Days 26    
Moisture  
Dew Point 31 °F    
Average Humidity 72    
Maximum Humidity 99    
Minimum Humidity 42    
Precipitation  
Precipitation 0.00 in - - ()
Sea Level Pressure  
Sea Level Pressure 29.60 in    
Wind  
Wind Speed 6 mph (WSW)    
Max Wind Speed 13 mph    
Max Gust Speed -    
Visibility 9 miles    
Events Fog    
Averages and records for this station are not official NWS values.
T = Trace of Precipitation, MM = Missing Value Source: NWS Daily Summary

Daily Weather History Graph

Daily Weather History Graph

Search for Another Location

Airport:

Trip Planner

Search our weather history database for the weather conditions in past years. The results will help you decide how hot, cold, wet, or windy it might be!

Date:

Astronomy

Mar. 10, 2014 Rise Set
Actual Time 7:25 AM CDT 7:03 PM CDT
Civil Twilight 6:56 AM CDT 7:32 PM CDT
Nautical Twilight 6:22 AM CDT 8:07 PM CDT
Astronomical Twilight 5:47 AM CDT 8:42 PM CDT
Moon 1:35 PM CDT (3/10) 3:49 AM CDT (3/10)
Length of Visible Light 12h 36m
Length of Day
11h 37m
Waxing Gibbous, 70% of the Moon is Illuminated
Mar 10
Waxing Gibbous
Mar 16
Full
Mar 23
Last Quarter
Mar 30
New
Apr 7
First Quarter

Hourly Weather History & Observations

Time (CDT) Temp. Windchill Dew Point Humidity Pressure Visibility Wind Dir Wind Speed Gust Speed Precip Events Conditions
12:00 AM 35.6 °F 30.7 °F 30.6 °F 82% 29.64 in 10.0 mi SW 5.8 mph - N/A   Clear
12:15 AM 34.7 °F 30.6 °F 30.2 °F 84% 29.64 in 10.0 mi SW 4.6 mph - N/A   Clear
12:35 AM 34.3 °F 29.2 °F 30.2 °F 85% 29.64 in 10.0 mi SW 5.8 mph - N/A   Clear
12:55 AM 34.9 °F 29.9 °F 30.6 °F 84% 29.64 in 10.0 mi SW 5.8 mph - N/A   Scattered Clouds
1:15 AM 34.7 °F 31.8 °F 31.1 °F 87% 29.63 in 10.0 mi SSW 3.5 mph - N/A   Overcast
1:35 AM 34.7 °F 31.8 °F 30.9 °F 86% 29.62 in 10.0 mi SSW 3.5 mph - N/A   Overcast
1:55 AM 34.2 °F 30.0 °F 30.7 °F 87% 29.62 in 10.0 mi SW 4.6 mph - N/A   Mostly Cloudy
2:15 AM 33.8 °F 29.6 °F 30.7 °F 89% 29.63 in 10.0 mi WSW 4.6 mph - N/A   Clear
2:35 AM 32.7 °F 28.3 °F 29.7 °F 88% 29.64 in 10.0 mi SW 4.6 mph - N/A   Clear
2:55 AM 30.7 °F - 28.4 °F 91% 29.63 in 7.0 mi Calm Calm - N/A   Clear
3:15 AM 30.7 °F - 28.8 °F 92% 29.61 in 10.0 mi Calm Calm - N/A   Clear
3:35 AM 31.1 °F 26.4 °F 29.7 °F 94% 29.59 in 7.0 mi SSW 4.6 mph - N/A   Clear
3:55 AM 31.1 °F - 29.5 °F 94% 29.58 in 7.0 mi Calm Calm - N/A   Clear
4:15 AM 31.1 °F 27.7 °F 29.5 °F 94% 29.58 in 7.0 mi SSW 3.5 mph - N/A   Clear
4:40 AM 31.8 °F 26.2 °F 30.4 °F 94% 29.58 in 10.0 mi SW 5.8 mph - N/A   Clear
4:55 AM 32.0 °F 25.6 °F 30.6 °F 94% 29.58 in 7.0 mi SSW 6.9 mph - N/A   Clear
5:15 AM 31.8 °F 27.3 °F 30.4 °F 94% 29.58 in 7.0 mi SSW 4.6 mph - N/A   Clear
5:35 AM 30.4 °F 26.9 °F 29.1 °F 95% 29.58 in 7.0 mi South 3.5 mph - N/A   Clear
5:55 AM 29.3 °F 25.6 °F 28.2 °F 96% 29.58 in 5.0 mi South 3.5 mph - N/A   Clear
6:15 AM 29.8 °F 26.3 °F 28.9 °F 96% 29.58 in 4.0 mi South 3.5 mph - N/A   Clear
6:35 AM 28.9 °F - 28.2 °F 97% 29.58 in 2.5 mi Calm Calm - N/A   Clear
6:55 AM 28.8 °F - 28.2 °F 98% 29.58 in 1.8 mi Calm Calm - N/A   Mist
7:15 AM 29.7 °F 26.1 °F 29.3 °F 99% 29.58 in 1.8 mi South 3.5 mph - N/A   Mist
7:35 AM 29.7 °F 26.1 °F 29.1 °F 98% 29.57 in 1.8 mi South 3.5 mph - N/A   Mist
7:55 AM 28.6 °F - 28.0 °F 98% 29.58 in 0.5 mi Calm Calm - N/A Fog Light Freezing Fog
8:15 AM 29.5 °F 24.5 °F 28.9 °F 98% 29.57 in 1.0 mi South 4.6 mph - N/A   Mist
8:35 AM 29.3 °F 24.3 °F 28.6 °F 97% 29.57 in 1.0 mi SSW 4.6 mph - N/A   Mist
8:55 AM 30.2 °F 26.7 °F 29.7 °F 98% 29.57 in 3.0 mi SSW 3.5 mph - N/A   Clear
9:20 AM 33.1 °F 27.7 °F 32.7 °F 99% 29.56 in 10.0 mi SW 5.8 mph - N/A   Clear
9:35 AM 34.7 °F 30.6 °F 32.4 °F 91% 29.56 in 10.0 mi SSW 4.6 mph - N/A   Clear
9:55 AM 36.5 °F 31.8 °F 32.2 °F 84% 29.57 in 10.0 mi SW 5.8 mph - N/A   Clear
10:15 AM 38.8 °F 36.5 °F 33.1 °F 80% 29.56 in 10.0 mi SSW 3.5 mph - N/A   Clear
10:35 AM 39.2 °F - 32.9 °F 78% 29.56 in 10.0 mi Calm Calm - N/A   Clear
10:55 AM 41.4 °F - 33.3 °F 73% 29.57 in 10.0 mi Calm Calm - N/A   Clear
11:15 AM 43.7 °F 39.7 °F 33.8 °F 68% 29.57 in 10.0 mi West 6.9 mph - N/A   Clear
11:35 AM 45.7 °F 41.5 °F 34.0 °F 64% 29.58 in 10.0 mi West 8.1 mph - N/A   Clear
11:55 AM 46.9 °F - 34.0 °F 61% 29.58 in 10.0 mi West 9.2 mph - N/A   Clear
12:15 PM 48.6 °F - 34.0 °F 57% 29.58 in 10.0 mi West 9.2 mph - N/A   Clear
12:35 PM 49.1 °F - 33.8 °F 56% 29.58 in 10.0 mi West 9.2 mph - N/A   Clear
12:55 PM 50.2 °F - 33.3 °F 52% 29.58 in 10.0 mi West 10.4 mph - N/A   Clear
1:15 PM 50.0 °F - 32.9 °F 52% 29.58 in 10.0 mi West 9.2 mph - N/A   Clear
1:35 PM 49.3 °F - 32.2 °F 52% 29.58 in 10.0 mi West 10.4 mph - N/A   Clear
1:55 PM 49.8 °F - 32.0 °F 50% 29.58 in 10.0 mi West 11.5 mph - N/A   Clear
2:15 PM 49.8 °F - 31.6 °F 50% 29.56 in 10.0 mi West 10.4 mph - N/A   Clear
2:35 PM 50.2 °F - 30.7 °F 47% 29.57 in 10.0 mi West 12.7 mph - N/A   Clear
2:55 PM 50.5 °F - 30.2 °F 46% 29.58 in 10.0 mi West 12.7 mph - N/A   Clear
3:15 PM 50.5 °F - 30.0 °F 45% 29.58 in 10.0 mi West 11.5 mph - N/A   Clear
3:35 PM 50.5 °F - 29.3 °F 44% 29.58 in 10.0 mi West 12.7 mph - N/A   Clear
3:55 PM 51.4 °F - 28.9 °F 42% 29.58 in 10.0 mi West 12.7 mph - N/A   Clear
4:15 PM 50.0 °F - 29.5 °F 45% 29.58 in 10.0 mi WNW 10.4 mph - N/A   Clear
4:35 PM 50.0 °F - 29.1 °F 45% 29.58 in 10.0 mi West 10.4 mph - N/A   Clear
4:55 PM 50.0 °F - 29.1 °F 45% 29.58 in 10.0 mi West 11.5 mph - N/A   Clear
5:15 PM 49.6 °F - 29.3 °F 46% 29.58 in 10.0 mi West 8.1 mph - N/A   Clear
5:35 PM 49.3 °F - 28.6 °F 45% 29.58 in 10.0 mi West 9.2 mph - N/A   Clear
5:55 PM 48.9 °F - 28.9 °F 46% 29.58 in 10.0 mi West 8.1 mph - N/A   Clear
6:15 PM 47.3 °F - 29.8 °F 51% 29.59 in 10.0 mi West 6.9 mph - N/A   Clear
6:35 PM 48.2 °F - 29.1 °F 48% 29.60 in 10.0 mi WSW 5.8 mph - N/A   Clear
6:55 PM 49.1 °F - 28.9 °F 46% 29.60 in 10.0 mi WSW 6.9 mph - N/A   Clear
7:15 PM 47.8 °F - 29.3 °F 49% 29.61 in 10.0 mi WSW 6.9 mph - N/A   Clear
7:35 PM 46.8 °F - 31.1 °F 55% 29.62 in 10.0 mi WSW 8.1 mph - N/A   Clear
7:55 PM 45.5 °F 41.3 °F 31.6 °F 58% 29.63 in 10.0 mi WSW 8.1 mph - N/A   Clear
8:15 PM 45.3 °F 41.1 °F 31.8 °F 59% 29.64 in 10.0 mi WSW 8.1 mph - N/A   Clear
8:35 PM 45.1 °F 40.8 °F 32.0 °F 60% 29.64 in 10.0 mi WSW 8.1 mph - N/A   Clear
8:55 PM 44.6 °F 40.2 °F 32.0 °F 61% 29.64 in 10.0 mi WSW 8.1 mph - N/A   Clear
9:15 PM 44.1 °F 39.0 °F 32.0 °F 63% 29.65 in 10.0 mi WSW 9.2 mph - N/A   Clear
9:35 PM 44.1 °F 39.5 °F 32.0 °F 63% 29.65 in 10.0 mi WSW 8.1 mph - N/A   Mostly Cloudy
9:55 PM 43.3 °F 38.6 °F 31.8 °F 64% 29.64 in 10.0 mi West 8.1 mph - N/A   Overcast
10:15 PM 41.4 °F 36.8 °F 32.0 °F 69% 29.65 in 10.0 mi West 6.9 mph - N/A   Overcast
10:35 PM 41.4 °F 36.8 °F 32.0 °F 69% 29.65 in 10.0 mi West 6.9 mph - N/A   Mostly Cloudy
10:55 PM 41.0 °F 36.4 °F 31.8 °F 70% 29.66 in 10.0 mi West 6.9 mph - N/A   Mostly Cloudy
11:15 PM 41.5 °F 37.1 °F 31.6 °F 68% 29.66 in 10.0 mi West 6.9 mph - N/A   Overcast
11:35 PM 41.4 °F 36.8 °F 31.5 °F 68% 29.66 in 10.0 mi West 6.9 mph - N/A   Overcast
11:55 PM 40.3 °F 35.5 °F 31.6 °F 71% 29.65 in 10.0 mi West 6.9 mph - N/A   Mostly Cloudy